TimePDT,TemperatureF,Dew PointF,Humidity,Sea Level PressureIn,VisibilityMPH,Wind Direction,Wind SpeedMPH,Gust SpeedMPH,PrecipitationIn,Events,Conditions,WindDirDegrees,DateUTC
12:56 AM,57.9,53.1,84,30.11,10.0,NNW,5.8,-,N/A,,Clear,340,2013-06-22 07:56:00
1:56 AM,55.9,52.0,87,30.10,10.0,NNW,4.6,-,N/A,,Clear,330,2013-06-22 08:56:00
2:56 AM,55.0,52.0,89,30.09,10.0,NNW,3.5,-,N/A,,Clear,340,2013-06-22 09:56:00
3:56 AM,51.1,50.0,96,30.09,10.0,Calm,Calm,-,N/A,,Clear,0,2013-06-22 10:56:00
4:56 AM,51.1,48.9,92,30.08,10.0,Calm,Calm,-,N/A,,Clear,0,2013-06-22 11:56:00
5:56 AM,48.9,48.0,97,30.08,3.0,Calm,Calm,-,N/A,,Clear,0,2013-06-22 12:56:00
6:03 AM,48.2,48.2,100,30.08,2.5,SSE,3.5,-,N/A,,Clear,160,2013-06-22 13:03:00
6:11 AM,50.0,48.2,94,30.08,10.0,Calm,Calm,-,N/A,,Clear,0,2013-06-22 13:11:00
6:56 AM,57.0,53.1,87,30.08,10.0,Calm,Calm,-,N/A,,Clear,0,2013-06-22 13:56:00
7:56 AM,60.1,52.0,75,30.07,10.0,Calm,Calm,-,N/A,,Clear,0,2013-06-22 14:56:00
8:56 AM,62.1,51.1,67,30.06,10.0,East,4.6,-,N/A,,Clear,100,2013-06-22 15:56:00
9:56 AM,64.9,51.1,61,30.04,10.0,Calm,Calm,-,N/A,,Clear,0,2013-06-22 16:56:00
10:56 AM,70.0,52.0,53,30.03,10.0,Calm,Calm,-,N/A,,Clear,0,2013-06-22 17:56:00
11:56 AM,73.0,51.1,46,30.01,10.0,Variable,4.6,-,N/A,,Scattered Clouds,0,2013-06-22 18:56:00
12:56 PM,75.0,50.0,41,29.99,10.0,Variable,3.5,-,N/A,,Clear,0,2013-06-22 19:56:00
1:56 PM,75.9,50.0,40,29.96,10.0,Calm,Calm,-,N/A,,Clear,0,2013-06-22 20:56:00
2:56 PM,79.0,46.0,31,29.94,10.0,South,6.9,-,N/A,,Clear,190,2013-06-22 21:56:00
3:56 PM,78.1,37.9,24,29.91,10.0,Variable,4.6,-,N/A,,Clear,0,2013-06-22 22:56:00
4:56 PM,81.0,41.0,24,29.89,10.0,NNW,5.8,-,N/A,,Clear,340,2013-06-22 23:56:00
5:56 PM,81.0,35.1,19,29.87,10.0,Calm,Calm,-,N/A,,Clear,0,2013-06-23 00:56:00
6:56 PM,79.0,42.1,27,29.85,10.0,South,3.5,-,N/A,,Clear,170,2013-06-23 01:56:00
7:56 PM,77.0,46.0,33,29.85,10.0,South,3.5,-,N/A,,Clear,190,2013-06-23 02:56:00
8:56 PM,73.9,51.1,45,29.86,10.0,West,6.9,-,N/A,,Clear,270,2013-06-23 03:56:00
9:56 PM,70.0,51.1,51,29.86,10.0,West,5.8,-,N/A,,Scattered Clouds,270,2013-06-23 04:56:00
10:56 PM,69.1,51.1,53,29.86,10.0,Variable,3.5,-,N/A,,Overcast,0,2013-06-23 05:56:00
11:56 PM,66.0,52.0,60,29.86,10.0,South,3.5,-,N/A,,Overcast,170,2013-06-23 06:56:00